#timestamp,LO_Frequency,Hit,StdDev 
1629486015.2,286047000.1,N
1629486035.0,286047001.8,N
1629486035.9,286047001.8,N
1629486055.8,286046999.8,N
1629486075.6,286047000.1,N
1629486095.4,286047000.1,N
1629486115.3,286047004.0,Y
1629486135.1,286047002.7,P
1629486155.9,286047000.5,N
1629486175.7,286046999.8,N
1629486195.5,286047000.2,N
1629486215.4,286046998.2,N
1629486235.2,286047000.8,N
1629486255.0,286047001.0,N
1629486256.0,286047001.0,N
1629486275.8,286047002.6,N
1629486295.6,286047002.6,N
1629486315.5,286046999.7,N
1629486335.3,286047002.6,N
1629486355.1,286046999.7,N
1629486375.9,286046999.8,N
1629486395.7,286047000.1,N
1629486415.5,286047000.2,N
1629486435.4,286047002.1,N
1629486455.2,286047001.5,N
1629486475.1,286047003.4,N
1629486476.0,286047003.4,N
1629486495.8,286047004.2,Y
1629486515.6,286047002.4,P
1629486535.5,286046999.8,N
1629486555.3,286047002.5,N
1629486575.2,286047002.3,N
1629486595.9,286047002.5,N
1629486615.7,286047002.5,N
1629486635.6,286046999.7,N
1629486655.4,286047002.6,N
1629486675.3,286047002.8,N
1629486695.1,286047002.3,N
1629486696.0,286047002.3,N
1629486715.8,286047002.6,N
1629486735.7,286047000.2,N
1629486755.5,286046999.7,N
1629486775.3,286046999.9,N
1629486795.2,286046998.7,N
1629486815.0,286046998.1,N
1629486815.9,286046998.1,N
1629486835.8,286047000.9,N
1629486855.6,286047000.2,N
1629486875.4,286047000.0,N
1629486895.3,286046998.3,N
1629486915.1,286047000.2,N
1629486935.9,286047001.0,N
1629486955.7,286047000.9,N
1629486975.5,286047000.6,N
1629486995.4,286047002.7,N
1629487015.2,286047002.7,N
1629487035.1,286047002.4,N
1629487036.0,286047002.4,N
1629487055.8,286047001.9,N
1629487075.6,286047002.4,N
1629487095.5,286046999.7,N
1629487115.3,286046999.8,N
1629487135.1,286047000.2,N
1629487155.9,286047002.3,N
1629487175.7,286047001.8,N
1629487195.6,286047001.3,N
1629487215.4,286047003.2,N
1629487235.2,286047005.5,Y
1629487255.1,286047003.3,P
1629487256.0,286047003.3,N
1629487275.8,286047003.1,N
1629487295.7,286047006.0,Y
1629487315.5,286047002.5,P
1629487335.3,286047001.9,P
1629487355.2,286047004.0,P
1629487375.9,286047001.3,N
1629487395.7,286047002.1,N
1629487415.6,286047004.3,Y
1629487435.4,286047000.4,P
1629487455.3,286046999.7,N
1629487475.1,286047002.4,N
1629487476.0,286047002.4,N
1629487495.8,286046999.8,N
1629487515.7,286047002.7,N
1629487535.5,286047002.8,N
1629487555.3,286047000.1,N
1629487575.2,286047002.4,N
1629487595.0,286047002.4,N
1629487595.9,286047002.4,N
1629487615.8,286047002.4,N
1629487635.6,286047000.0,N
1629487655.4,286046998.2,N
1629487675.3,286046999.2,N
1629487695.1,286046996.5,N
1629487715.8,286046999.2,N
1629487735.7,286046999.6,N
1629487755.5,286046996.5,N
1629487775.4,286046997.9,N
1629487795.2,286046995.5,N
1629487815.0,286046995.3,N
1629487815.9,286046995.3,N
1629487835.8,286046995.1,N
1629487855.6,286046997.7,N
1629487875.4,286046997.3,N
1629487895.3,286046995.3,N
1629487915.1,286046993.8,N
1629487935.9,286046996.0,N
1629487955.7,286046996.4,N
1629487975.5,286046993.9,N
1629487995.4,286046992.1,N
1629488015.2,286046994.3,N
1629488035.0,286046992.6,N
1629488035.9,286046992.6,N
1629488055.8,286046992.5,N
1629488075.6,286046992.3,N
1629488095.5,286046992.2,N
1629488115.3,286046993.9,N
1629488135.1,286046994.0,N
1629488155.9,286046994.3,N
1629488175.7,286046991.8,Y
1629488195.5,286046996.9,P
1629488215.4,286046999.0,N
1629488235.2,286046998.9,N
1629488255.1,286046999.1,N
1629488256.0,286046999.1,N
1629488275.8,286046999.6,N
1629488295.6,286046996.9,N
1629488315.5,286046999.5,N
1629488335.3,286046996.7,N
1629488355.1,286046996.5,N
1629488375.9,286046998.4,N
1629488395.7,286046998.1,N
1629488415.6,286046999.0,N
1629488435.4,286046998.2,N
1629488455.2,286046998.5,N
1629488475.1,286046998.2,N
1629488476.0,286046998.2,N
1629488495.8,286047000.8,N
1629488515.7,286047000.7,N
1629488535.5,286047001.0,N
1629488555.3,286047000.7,N
1629488575.2,286047000.6,N
1629488595.0,286047001.2,N
1629488595.9,286047001.2,N
1629488615.8,286046998.8,N
1629488635.6,286047000.7,N
1629488655.4,286046998.1,N
1629488675.3,286046999.9,N
1629488695.1,286047001.1,N
1629488715.8,286047001.0,N
1629488735.7,286047000.4,N
1629488755.5,286047001.0,N
1629488775.4,286047001.2,N
1629488795.2,286046999.4,N
1629488815.0,286046996.5,N
1629488815.9,286046996.5,N
1629488835.8,286046998.9,N
1629488855.6,286047000.8,N
1629488875.4,286047000.5,N
1629488895.3,286047000.5,N
1629488915.1,286047001.1,N
1629488935.9,286047000.7,N
1629488955.7,286047000.7,N
1629488975.5,286047002.4,N
1629488995.4,286047000.3,N
1629489015.2,286047000.5,N
1629489035.0,286047000.4,N
1629489035.9,286047000.4,N
1629489055.8,286047000.7,N
1629489075.6,286047000.7,N
1629489095.4,286047001.2,N
1629489115.3,286047000.7,N
1629489135.1,286046998.1,N
1629489155.9,286047000.7,N
1629489175.7,286047002.8,N
1629489195.5,286047001.1,N
1629489215.4,286047000.6,N
1629489235.2,286047000.9,N
1629489255.1,286046999.9,N
1629489256.0,286046999.9,N
1629489275.8,286047002.4,N
1629489295.6,286046998.1,N
1629489315.5,286047000.7,N
1629489335.3,286047000.7,N
1629489355.1,286047001.0,N
1629489375.9,286047000.7,N
1629489395.7,286047000.1,N
1629489415.6,286047002.5,N
1629489435.4,286047004.4,Y
1629489455.2,286046999.7,P
1629489475.1,286047002.4,P
1629489476.0,286047002.4,N
1629489495.8,286047002.3,N
1629489515.7,286046999.8,N
1629489535.5,286047002.8,N
1629489555.3,286047002.6,N
1629489575.2,286047002.7,N
1629489595.0,286047002.7,N
1629489595.9,286047002.7,N
